EN

Hourly Weather Buhvostovo

Today, 16 April, Friday

Time Temperature Precipitation Wind Pressure Humidity
00:00 +11°C° 0 mm 0 mps 748 mmHg 78%
01:00 +12°C° 0 mm 1 mps 748 mmHg 79%
02:00 +11°C° 0 mm 1 mps 748 mmHg 81%
03:00 +11°C° 0 mm 1 mps 748 mmHg 83%
04:00 +11°C° 0 mm 1 mps 749 mmHg 83%
05:00 +11°C° 0 mm 1 mps 749 mmHg 83%
06:00 +11°C° 0 mm 1 mps 749 mmHg 84%
07:00 +12°C° 0 mm 1 mps 749 mmHg 78%
08:00 +13°C° 0 mm 2 mps 749 mmHg 72%
09:00 +14°C° 0 mm 2 mps 750 mmHg 66%
10:00 +15°C° 0 mm 2 mps 750 mmHg 62%
11:00 +16°C° 0 mm 2 mps 750 mmHg 57%
12:00 +17°C° 0 mm 2 mps 750 mmHg 52%
13:00 +18°C° 0.2 mm 3 mps 750 mmHg 52%
14:00 +18°C° 0.2 mm 4 mps 750 mmHg 52%
15:00 +18°C° 0.2 mm 4 mps 750 mmHg 52%
16:00 +17°C° 0.8 mm 4 mps 750 mmHg 57%
17:00 +16°C° 0.8 mm 3 mps 750 mmHg 62%
18:00 +16°C° 0.8 mm 2 mps 749 mmHg 67%
19:00 +15°C° 1 mm 2 mps 750 mmHg 71%
20:00 +14°C° 1 mm 2 mps 750 mmHg 75%
21:00 +13°C° 1 mm 2 mps 750 mmHg 79%
22:00 +13°C° 0 mm 2 mps 750 mmHg 81%
23:00 +12°C° 0 mm 2 mps 750 mmHg 82%

Tomorrow, 17 April, Saturday

Time Temperature Precipitation Wind Pressure Humidity
00:00 +12°C° 0 mm 2 mps 751 mmHg 84%
01:00 +10°C° 0 mm 3 mps 751 mmHg 86%
02:00 +10°C° 0 mm 3 mps 751 mmHg 88%
03:00 +10°C° 0 mm 3 mps 751 mmHg 90%
04:00 +9°C° 0 mm 3 mps 750 mmHg 92%
05:00 +9°C° 0 mm 3 mps 750 mmHg 93%
06:00 +9°C° 0 mm 3 mps 750 mmHg 95%
07:00 +10°C° 0.1 mm 4 mps 750 mmHg 90%
08:00 +11°C° 0.1 mm 4 mps 750 mmHg 86%
09:00 +11°C° 0.1 mm 4 mps 750 mmHg 81%
10:00 +12°C° 0.5 mm 4 mps 750 mmHg 80%
11:00 +12°C° 0.5 mm 4 mps 750 mmHg 79%
12:00 +12°C° 0.5 mm 4 mps 751 mmHg 78%
13:00 +11°C° 0.9 mm 4 mps 750 mmHg 80%
14:00 +11°C° 0.9 mm 3 mps 750 mmHg 82%
15:00 +10°C° 0.9 mm 3 mps 750 mmHg 84%
16:00 +10°C° 0.9 mm 3 mps 750 mmHg 85%
17:00 +9°C° 0.9 mm 3 mps 750 mmHg 85%
18:00 +9°C° 0.9 mm 3 mps 750 mmHg 86%
19:00 +8°C° 0.3 mm 2 mps 751 mmHg 87%
20:00 +8°C° 0.3 mm 2 mps 751 mmHg 89%
21:00 +9°C° 0.3 mm 1 mps 751 mmHg 90%
22:00 +8°C° 0 mm 1 mps 751 mmHg 91%
23:00 +7°C° 0 mm 2 mps 751 mmHg 91%

Day after tomorrow, 18 April, Sunday

Time Temperature Precipitation Wind Pressure Humidity
00:00 +7°C° 0 mm 2 mps 751 mmHg 92%
01:00 +6°C° 0 mm 2 mps 751 mmHg 92%
02:00 +6°C° 0 mm 2 mps 751 mmHg 92%
03:00 +6°C° 0 mm 2 mps 751 mmHg 92%
04:00 +6°C° 0 mm 2 mps 751 mmHg 92%
05:00 +7°C° 0 mm 1 mps 751 mmHg 92%
06:00 +6°C° 0 mm 1 mps 751 mmHg 92%
07:00 +7°C° 0.1 mm 1 mps 751 mmHg 89%
08:00 +8°C° 0.1 mm 1 mps 751 mmHg 86%
09:00 +9°C° 0.1 mm 1 mps 751 mmHg 82%
10:00 +8°C° 0.3 mm 2 mps 752 mmHg 81%
11:00 +9°C° 0.3 mm 2 mps 752 mmHg 80%
12:00 +9°C° 0.3 mm 3 mps 752 mmHg 79%
13:00 +10°C° 0.1 mm 2 mps 752 mmHg 73%
14:00 +10°C° 0.1 mm 2 mps 752 mmHg 67%
15:00 +12°C° 0.1 mm 1 mps 752 mmHg 62%
16:00 +12°C° 0 mm 1 mps 752 mmHg 61%
17:00 +12°C° 0 mm 1 mps 752 mmHg 61%
18:00 +12°C° 0 mm 1 mps 752 mmHg 61%
19:00 +11°C° 0 mm 1 mps 752 mmHg 65%
20:00 +11°C° 0 mm 1 mps 752 mmHg 69%
21:00 +10°C° 0 mm 1 mps 752 mmHg 73%
22:00 +10°C° 0 mm 1 mps 752 mmHg 74%
23:00 +10°C° 0 mm 1 mps 752 mmHg 75%

19 April, Monday

Time Temperature Precipitation Wind Pressure Humidity
00:00 +10°C° 0 mm 1 mps 752 mmHg 76%
01:00 +8°C° 0.1 mm 2 mps 752 mmHg 78%
02:00 +8°C° 0.1 mm 2 mps 752 mmHg 80%
03:00 +8°C° 0.1 mm 2 mps 752 mmHg 81%
04:00 +8°C° 0.1 mm 3 mps 752 mmHg 84%
05:00 +7°C° 0.1 mm 3 mps 752 mmHg 87%
06:00 +7°C° 0.1 mm 3 mps 753 mmHg 90%
07:00 +7°C° 0 mm 4 mps 752 mmHg 88%
08:00 +7°C° 0 mm 4 mps 752 mmHg 86%
09:00 +8°C° 0 mm 5 mps 752 mmHg 84%
10:00 +9°C° 0 mm 5 mps 752 mmHg 78%
11:00 +10°C° 0 mm 5 mps 752 mmHg 73%
12:00 +11°C° 0 mm 6 mps 752 mmHg 67%
13:00 +11°C° 0.2 mm 6 mps 752 mmHg 67%
14:00 +11°C° 0.2 mm 7 mps 751 mmHg 67%
15:00 +11°C° 0.2 mm 7 mps 751 mmHg 66%
16:00 +10°C° 0.1 mm 7 mps 751 mmHg 71%
17:00 +9°C° 0.1 mm 7 mps 751 mmHg 77%
18:00 +7°C° 0.1 mm 8 mps 751 mmHg 82%
19:00 +6°C° 0 mm 8 mps 751 mmHg 82%
20:00 +6°C° 0 mm 8 mps 751 mmHg 82%
21:00 +6°C° 0 mm 7 mps 751 mmHg 82%
22:00 +5°C° 0 mm 8 mps 751 mmHg 83%
23:00 +5°C° 0 mm 8 mps 750 mmHg 84%

20 April, Tuesday

Time Temperature Precipitation Wind Pressure Humidity
00:00 +5°C° 0 mm 8 mps 750 mmHg 84%
01:00 +5°C° 0 mm 8 mps 749 mmHg 85%
02:00 +5°C° 0 mm 8 mps 749 mmHg 85%
03:00 +5°C° 0 mm 8 mps 748 mmHg 85%
04:00 +5°C° 0.1 mm 9 mps 748 mmHg 86%
05:00 +5°C° 0.1 mm 9 mps 747 mmHg 87%
06:00 +5°C° 0.1 mm 9 mps 747 mmHg 88%
07:00 +5°C° 0.5 mm 10 mps 746 mmHg 88%
08:00 +5°C° 0.5 mm 10 mps 745 mmHg 87%
09:00 +6°C° 0.5 mm 11 mps 745 mmHg 87%
10:00 +4°C° 3.6 mm 11 mps 744 mmHg 89%
11:00 +4°C° 3.6 mm 12 mps 743 mmHg 90%
12:00 +4°C° 3.6 mm 13 mps 743 mmHg 92%
13:00 +5°C° 3.3 mm 13 mps 742 mmHg 92%
14:00 +5°C° 3.3 mm 13 mps 742 mmHg 91%
15:00 +5°C° 3.3 mm 13 mps 741 mmHg 91%
16:00 +5°C° 0.6 mm 13 mps 741 mmHg 90%
17:00 +5°C° 0.6 mm 13 mps 741 mmHg 90%
18:00 +7°C° 0.6 mm 13 mps 740 mmHg 89%
19:00 +7°C° 0.3 mm 12 mps 740 mmHg 88%
20:00 +7°C° 0.3 mm 11 mps 740 mmHg 88%
21:00 +7°C° 0.3 mm 9 mps 740 mmHg 87%
22:00 +7°C° 0.1 mm 10 mps 740 mmHg 86%
23:00 +7°C° 0.1 mm 10 mps 740 mmHg 85%

21 April, Wednesday

Time Temperature Precipitation Wind Pressure Humidity
00:00 +8°C° 0.1 mm 11 mps 740 mmHg 84%
01:00 +7°C° 0.3 mm 10 mps 740 mmHg 85%
02:00 +7°C° 0.3 mm 10 mps 740 mmHg 86%
03:00 +6°C° 0.3 mm 10 mps 741 mmHg 87%
04:00 +6°C° 0.2 mm 9 mps 741 mmHg 87%
05:00 +6°C° 0.2 mm 8 mps 742 mmHg 87%
06:00 +6°C° 0.2 mm 7 mps 743 mmHg 87%
07:00 +6°C° 0.1 mm 7 mps 743 mmHg 84%
08:00 +8°C° 0.1 mm 7 mps 744 mmHg 81%
09:00 +9°C° 0.1 mm 7 mps 745 mmHg 78%
10:00 +10°C° 0 mm 8 mps 745 mmHg 72%
11:00 +11°C° 0 mm 9 mps 745 mmHg 67%
12:00 +12°C° 0 mm 9 mps 745 mmHg 61%
13:00 +12°C° 0 mm 9 mps 746 mmHg 59%
14:00 +12°C° 0 mm 9 mps 746 mmHg 57%
15:00 +13°C° 0 mm 8 mps 746 mmHg 55%
16:00 +12°C° 0.1 mm 8 mps 746 mmHg 59%
17:00 +12°C° 0.1 mm 8 mps 746 mmHg 62%
18:00 +11°C° 0.1 mm 8 mps 747 mmHg 65%
19:00 +10°C° 0.2 mm 7 mps 747 mmHg 69%
20:00 +10°C° 0.2 mm 7 mps 747 mmHg 72%
21:00 +9°C° 0.2 mm 6 mps 748 mmHg 76%
22:00 +8°C° 0 mm 6 mps 748 mmHg 79%
23:00 +8°C° 0 mm 6 mps 748 mmHg 82%
Show more

We Need Your Consent

Meteoprog and our Service Providers may store and access personal data such as cookies, device identifiers or other similar technologies on your device and process such data to personalise content and ads, as well as provide social media features and to analyse the traffic.

  • Store and/or access information on your device

    Cookies, device identifiers or other information can be stored or accessed on your device for the purposes indicated above.

  • Personalised ads and content, ad and content measurement, audience insights, and products development

    Ads and content can be personalised based on a profile. More data can be added to better personalise ads and content. Ad and content performance can be measured. Insights about the audience who saw the ads and content can be derived. Such data can be used to develop or improve user’s experience, systems and software.

By clicking ‘I Agree’ you will allow the use of indicated cookies, device identifiers, web beacons or other similar technologies. Your settings can be changed in the browser on your device.

For certain purposes, legitimate interests may be relied on, rather than consent. You can read more about this in our Privacy and Cookie Policy.